Tracking 32412 objects as of 7-Dec-2025
HD Live streaming from Space Station
objects crossing your sky now

NOAA 5

Track NOAA 5 now!
10-day predictions
NOAA 5 is classified as:


NORAD ID: 9057
Int'l Code: 1976-077A
Perigee: 1,515.1 km
Apogee: 1,530.9 km
Inclination: 102.3 °
Period: 116.3 minutes
Semi major axis: 7893 km
RCS: 1.7201 m2 (large)
Launch date: July 29, 1976
Source: United States (US)
Launch site: AIR FORCE WESTERN TEST RANGE (AFWTR)

Uplink (MHz):
Downlink (MHz):
Beacon (MHz):
Mode:
Call sign:
Status:

Your satellite tracking list
Your tracking list is empty




NASA's NSSDC Master Catalog

Two Line Element Set (TLE):
1 09057U 76077A   25340.58507156 -.00000038  00000-0  59643-4 0  9992
2 09057 102.2822 320.6715 0009983 333.0797 136.8656 12.37824994230644
Source of the keplerian elements: AFSPC